HYLAS 1

Last updated on Oct. 29, 2020, 5:52 a.m. UTC

1 37237U 10065A   20302.59355142 -.00000146  00000-0  00000-0 0  9997
2 37237   0.4434  95.0487 0002087 113.7862 198.6605  1.00271974 36349
UTC
Height (km)
Latitude
Longitude
Inclination
Orbital Period
UTC large
Height (km)
Speed (km/s)
/
Latitude / Longitude
Inclination (degrees)
Orbital Period (minutes)
Azimuth
Elevation
Range (km)
Doppler Factor
iOS Compass Heading
iOS Angle

Next 30 passes for location: Hong Kong

Rise time Rise Azimuth (degrees) Set time Set Azimuth (degrees) Duration Max altitude (degrees)

No matching passes for this satellites